Regional Weather Roundup
Issued by NWS Little Rock, AR

Home | Current Version | Previous Version | Text Only | Print | Product List | Glossary Off
Versions: 1 2 3 4 5 6 7 8 9 10 11 12 13 14 15 16 17 18 19 20 21 22 23 24 25 26 27

000
ASUS44 KLZK 242205
RWRLZK

WEATHER ROUNDUP FOR ARKANSAS
NATIONAL WEATHER SERVICE LITTLE ROCK AR
500 PM CDT SUN JUL 24 2016

NOTE: "FAIR" INDICATES FEW OR NO CLOUDS BELOW 12,000 FEET WITH NO
SIGNIFICANT WEATHER AND/OR OBSTRUCTIONS TO VISIBILITY.

ARZ001-003-010-029-242300-
NORTHWEST ARKANSAS

CITY           SKY/WX    TMP DP  RH WIND       PRES   REMARKS
FAYETTEVILLE   SUNNY     92  74  55 VRB3      29.96S HX 101
FORT SMITH     SUNNY     99  70  38 E5        29.90S HX 106
HARRISON       CLOUDY    88  75  65 SE12      29.98S HX  97
BENTONVILLE    SUNNY     95  72  46 N5        29.98S HX 103
ROGERS         SUNNY     94  75  54 N5        29.98S HX 105
SILOAM SPGS    SUNNY     93  68  43 CALM        N/A  HX  97
HIGHFILL       SUNNY     97  73  45 NW3       29.96F HX 107
SPRINGDALE     MOSUNNY   97  70  41 N6        29.98F HX 103
$$

ARZ004-005-016-242300-
NORTH CENTRAL ARKANSAS

CITY           SKY/WX    TMP DP  RH WIND       PRES   REMARKS
BATESVILLE     PTSUNNY   82  77  83 SW3       29.94R THUNDER HX  91
FLIPPIN        PTSUNNY   88  64  45 W5        29.92F HX  89
MTN HOME       CLOUDY    78  75  90 CALM      29.94F
$$

ARZ040-041-242300-
WEST CENTRAL ARKANSAS

CITY           SKY/WX    TMP DP  RH WIND       PRES   REMARKS
MENA           PTSUNNY   90  75  62 CALM      29.96R HX 100
MOUNT IDA      PTSUNNY   92  69  47 N5        29.92R HX  97
$$

ARZ009-017-025-026-028-242300-
NORTHEAST ARKANSAS

CITY           SKY/WX    TMP DP  RH WIND       PRES   REMARKS
CORNING          N/A     93  79  62 E5        29.93F HX 110
JONESBORO      TSTM      80  73  79 N12G25    29.94R
NEWPORT        MOSUNNY   94  78  59 SE8       29.93F HX 109
WALNUT RIDGE   CLOUDY    91  75  59 E6        29.91S HX 102
BLYTHEVILLE    SUNNY     90  75  61 E3        29.94S HX 100
$$

ARZ022-023-033-042-044-242300-
CENTRAL ARKANSAS

CITY           SKY/WX    TMP DP  RH WIND       PRES   REMARKS
LITTLE ROCK    CLOUDY    95  76  53 SE6       29.93R HX 108
N LITTLE ROCK    N/A     91  76  60 SE7       29.91R HX 102
JACKSONVILLE   CLOUDY    91  79  66 SE7       29.93R HX 107
SEARCY         SUNNY     91  80  70 SE6       29.95R HX 109
HOT SPRINGS    CLOUDY    94  73  50 SE6       29.93S HX 103
RUSSELLVILLE   MOSUNNY   85  66  53 NE9       29.91S HX  87
$$

ARZ036-242300-
EAST ARKANSAS

CITY           SKY/WX    TMP DP  RH WIND       PRES   REMARKS
WEST MEMPHIS   CLOUDY    84  75  74 CALM      29.93S HX  92
$$

ARZ050-053-066-070-073-242300-
SOUTHWEST ARKANSAS

CITY           SKY/WX    TMP DP  RH WIND       PRES   REMARKS
CAMDEN         MOSUNNY   99  68  36 CALM      29.92R HX 104
TEXARKANA      SUNNY     96  74  48 MISG      29.91F HX 107
EL DORADO      CLOUDY    84  72  67 SE23G37   29.97R HX  89
DE QUEEN       MOSUNNY   97  73  45 E5        29.88F HX 107
$$

ARZ056-057-069-242300-
SOUTHEAST ARKANSAS

CITY           SKY/WX    TMP DP  RH WIND       PRES   REMARKS
PINE BLUFF     MOSUNNY   92  73  53 W3        29.93S HX 100
STUTTGART      CLOUDY    90  73  58 SE6       29.94R HX  98
MONTICELLO     TSTM      83  76  79 VRB7      29.95R VSB 1   HX  91

$$






USA.gov is the U.S. government's official web portal to all federal, state and local government web resources and services.